Location: Helsinki
(60.1699°N, 24.9384°E)
Time: 15:02:21
(UTC+02:00)

Tiros 1 - Pass Details

Date: 11 October 2022
Orbit: 629 x 662 km, 48.4° (Epoch: 07 December)

Event Time Altitude Azimuth Distance (km) Brightness Sun altitude
Rises 02:52:17 0° 260° (W) 2,995 - -33.2°
Reaches altitude 10° 02:56:15 10° 228° (SW) 2,076 - -32.9°
Maximum altitude 02:57:49 11° 209° (SSW) 1,973 - -32.8°
Drops below altitude 10° 02:59:22 10° 190° (S) 2,069 - -32.7°
Sets 03:03:18 0° 157° (SSE) 2,970 - -32.4°
